Location: Acuto
(41.7833°N, 13.1667°E)
Time: 15:32:38
(UTC+00:00)

Daily predictions for brighter satellites

Satellite Brightness Start Highest point End
(mag) Time Altitude Azimuth Time Altitude Azimuth Time Altitude Azimuth
Meteor 2-15 4.5 17:20:38 10° S 17:26:46 78° E 17:32:56 10° N
FengYun 1-2 T 4.3 17:22:18 10° SSE 17:27:56 86° ENE 17:33:38 10° NNW
Meteor 2-15 Rocket 4.5 17:22:27 10° S 17:28:29 65° E 17:34:35 10° NNE
NOSS 0 Rocket 4.1 17:22:34 10° NNW 17:28:42 57° ENE 17:34:48 10° SE
Cosmos 1707 3.5 17:27:39 10° NNE 17:31:13 32° ENE 17:34:45 10° SE
Cosmos 1536 Rocket 4.2 17:32:48 10° NNW 17:37:05 61° W 17:41:21 10° S
Envisat 3.6 17:32:21 10° S 17:37:21 62° W 17:42:25 10° NNW
Cosmos 2154 Rocket 4.0 17:32:00 10° N 17:38:09 60° E 17:44:16 10° SSE
Cosmos 1371 Rocket 4.2 17:33:10 10° S 17:38:16 49° ESE 17:43:26 10° NNE
Meteor 1-4 Rocket 3.9 17:38:17 10° NNE 17:40:57 20° ENE 17:43:35 10° ESE
YAOGAN 1 2.7 17:38:30 10° SSE 17:42:49 83° W 17:47:10 10° NNW
COSMOS 2428 3.3 17:41:17 10° NNW 17:46:53 62° WSW 17:52:28 10° S
YAOGAN 6 3.3 17:43:33 10° S 17:47:10 60° W 17:50:51 10° NNW
GP-B 3.0 17:43:25 10° N 17:47:52 73° E 17:52:17 10° S
Cosmos 1892 Rocket 4.4 17:45:58 10° NNE 17:49:54 30° ENE 17:53:47 10° SE
FREGAT/IRIS 3.8 17:52:04 15° ESE 17:53:28 21° ENE 17:55:41 10° NNE
Cosmos 2227 Rocket 2.4 17:48:03 10° S 17:53:28 49° ESE 17:58:55 10° NE
Cosmos 2084 Rocket 3.5 17:54:30 10° SSW 17:58:56 83° SE 18:03:25 10° NE
BREEZE-M DEB (TANK) 4.4 17:56:20 10° WNW 18:00:10 34° N 18:07:35 10° ENE
Cosmos 2219 3.3 17:54:54 10° SSW 18:00:39 85° WNW 18:06:27 10° NNE
CZ-2D R/B 3.1 17:57:19 10° SSE 18:01:05 86° ENE 18:04:55 10° N
CZ-2C R/B 4.3 17:58:25 10° NNE 18:02:24 32° E 18:06:22 10° SSE
Cosmos 2297 Rocket 2.2 17:57:51 10° S 18:03:25 64° ESE 18:09:01 10° NNE
ADEOS Rocket 4.2 17:58:51 10° NE 18:05:20 30° E 18:11:54 10° SSE
Cosmos 1190 Rocket 4.0 18:01:14 10° NNW 18:06:30 65° ENE 18:11:42 10° SSE
Cosmos 614 Rocket 3.9 18:01:27 10° NNW 18:06:40 70° ENE 18:11:48 10° SSE
FAST 4.4 18:03:41 10° S 18:06:42 61° E 18:09:17 10° NNE
SJ-6B 3.9 18:05:30 18° ESE 18:07:31 27° ENE 18:10:58 10° NNE
NOSS 3-4 (A) 4.1 18:00:59 10° NW 18:08:06 76° WSW 18:15:52 10° SSE
NOSS 3-4 (C) 4.1 18:01:06 10° NW 18:08:12 76° WSW 18:15:58 10° SSE
Nadezhda 1 Rocket 4.4 18:03:22 10° SSW 18:09:22 65° W 18:15:27 10° N
Cosmos 1766 4.3 18:07:35 15° SE 18:09:49 24° E 18:13:01 10° NE
MONITOR-E 3.9 18:07:30 12° SSE 18:10:00 58° ENE 18:12:45 10° N
H-2A R/B 3.0 18:09:15 19° ESE 18:11:28 25° ENE 18:15:34 10° N
CZ-4 R/B 3.7 18:09:21 10° SSW 18:12:37 26° W 18:15:58 10° NW
Orbus 7S? 4.4 18:10:10 10° SW 18:14:13 83° NW 18:24:00 10° NE
Cosmos 1295 Rocket 4.4 18:09:41 10° N 18:15:52 86° E 18:21:58 10° S
Okean 1-7 Rocket 3.6 18:11:34 10° N 18:15:59 60° E 18:20:25 10° SSE
Cosmos 962 Rocket 4.5 18:12:04 10° N 18:18:26 80° E 18:24:48 10° S
Ariane Rocket 3.1 18:14:35 10° S 18:19:38 77° WSW 18:24:45 10° NNW
In-Cosmos 22 4.1 18:15:12 10° N 18:20:37 72° E 18:26:09 10° SSE
HJ-1C 3.4 18:17:30 10° S 18:20:52 85° WSW 18:24:16 10° NNW
Cosmos 405 Rocket 2.5 18:18:47 10° S 18:22:27 86° E 18:26:12 10° N
GENESIS II 4.2 18:19:25 10° NNW 18:23:33 78° ENE 18:25:47 25° SE
Cosmos 1455 Rocket 3.0 18:21:28 10° S 18:25:49 61° E 18:30:13 10° NNE
Cosmos 1544 Rocket 3.7 18:21:34 10° SSE 18:25:51 48° E 18:30:09 10° NNE
BREEZE-M DEB (TANK) 4.1 18:13:43 10° WNW 18:27:51 70° NNE 18:29:55 29° E
PSLV R/B 2.5 18:25:18 10° W 18:27:58 75° S 18:28:09 70° SE
Lacrosse 5 rocket 2.1 18:25:08 10° WSW 18:28:36 43° NW 18:32:14 10° NE
ASTEX 1 3.3 18:25:23 10° N 18:30:18 89° ESE 18:35:12 10° S
Cosmos 389 Rocket 3.0 18:27:16 10° NNW 18:30:39 58° W 18:34:01 10° S
MOS 1 4.2 18:25:00 10° SSE 18:30:42 84° ENE 18:36:25 10° NNW
Cosmos 1674 3.3 18:27:53 10° N 18:31:14 35° ENE 18:31:14 35° ENE
Cosmos 407 Rocket 3.8 18:28:28 10° NNW 18:33:33 64° WSW 18:38:35 10° S
USA 186 1.9 18:33:12 43° SE 18:34:03 61° ENE 18:37:26 10° N
Cosmos 2056 Rocket 4.1 18:31:19 10° SSW 18:36:41 62° WNW 18:42:03 10° NNE
Cosmos 1939 Rocket 4.2 18:33:31 10° SSW 18:37:08 39° W 18:40:47 10° NNW
Cosmos 2237 Rocket 2.6 18:31:39 10° NNW 18:37:17 63° WSW 18:42:53 10° S
Cosmos 1420 Rocket 4.0 18:33:16 10° S 18:38:30 63° ESE 18:43:46 10° NNE
ISS -1.9 18:35:46 10° W 18:38:40 27° NNW 18:40:32 17° NNE
ATLAS CENTAUR R/B 4.0 18:35:22 10° SSE 18:35:35 11° SSE 18:35:35 11° SSE
Cosmos 1437 Rocket 2.8 18:35:46 10° N 18:39:28 51° ENE 18:39:44 49° E
DELTA 2 R/B (1) 3.6 18:37:01 10° W 18:42:37 71° S 18:44:50 37° ESE
ERBS 2.6 18:39:48 10° NW 18:43:05 50° NE 18:43:05 50° NE
Cosmos 1140 Rocket 3.6 18:41:39 10° NNW 18:46:49 74° WSW 18:50:36 18° S
SAR-Lupe-2 4.3 18:43:26 10° N 18:46:57 53° WNW 18:50:24 10° SSW
Cosmos 1626 Rocket 3.9 18:43:08 10° N 18:47:01 41° ENE 18:47:01 41° ENE
Meteor 1-24 Rocket 3.8 18:45:46 10° N 18:51:36 63° ENE 18:54:23 32° SSE
Cosmos 1805 3.1 18:54:16 35° S 18:55:51 88° E 18:59:46 10° N
Cosmos 1741 Rocket 4.5 18:50:55 10° N 18:55:56 40° ENE 18:56:13 40° ENE
Cosmos 1954 Rocket 4.0 18:52:15 10° NNW 18:57:28 81° WSW 18:59:57 32° S
Cosmos 2181 Rocket 4.5 18:59:14 10° SSW 19:05:23 62° W 19:11:43 10° N
GEOS 3 Rocket 3.5 19:05:54 49° SSE 19:07:19 82° SW 19:12:28 10° NW
Resurs 1-3 3.8 19:08:40 54° NE 19:08:40 54° NE 19:12:24 10° N
SL-08 R/B 4.4 19:02:33 10° N 19:09:02 74° E 19:11:30 40° SSE
Lacrosse 5 2.2 19:04:33 10° SSW 19:08:26 47° S 19:08:26 47° S
Cosmos 1602 Rocket 4.1 19:05:27 10° N 19:08:44 46° NNE 19:08:44 46° NNE
KORONAS-FOTON 4.2 19:06:02 10° N 19:09:08 58° NNW 19:09:08 58° NNW
Nadezhda 3 Rocket 4.2 19:11:03 45° ENE 19:11:03 45° ENE 19:16:26 10° NNE
SL-16 R/B 2.1 19:05:26 10° NNW 19:11:08 87° WSW 19:12:43 50° SSE
Cosmos 2366 rocket 4.3 19:13:22 10° NNW 19:19:42 69° W 19:24:13 20° S
SPOT 3 Rocket 4.1 19:19:19 28° SSW 19:21:53 54° W 19:26:56 10° NNW
ARGOS 3.1 19:20:36 52° S 19:21:58 79° WSW 19:27:23 10° NNW
Cosmos 2218 Rocket 4.4 19:15:43 10° NNW 19:21:58 61° W 19:26:58 16° SSW
Resurs 01 Rocket 2.4 19:26:29 43° N 19:26:29 43° N 19:29:34 10° N
Cosmos 1821 Rocket 4.2 19:20:57 10° N 19:26:18 51° NE 19:26:18 51° NE
RESURS DK-1 3.6 19:23:48 10° NNW 19:26:21 36° N 19:26:21 36° N
CZ-2C R/B 3.0 19:30:52 79° NE 19:30:52 79° NE 19:36:16 10° N
Cosmos 1452 Rocket 4.1 19:25:38 10° SW 19:30:46 55° WNW 19:35:56 10° N
MetOp-A 4.1 19:34:27 81° N 19:34:27 81° N 19:39:34 10° NNW
Cosmos 2227 Rocket 4.3 19:33:05 10° WSW 19:37:46 26° NW 19:42:30 10° N
H-2A R/B 3.1 19:49:53 35° WSW 19:50:40 38° W 19:55:23 10° NNW
ADEOS Rocket 4.0 19:43:41 10° N 19:51:03 60° WNW 19:58:39 10° SSW
Lacrosse 5 rocket 4.3 20:07:08 10° NW 20:08:05 12° NNW 20:08:05 12° NNW
Cosmos 1943 4.4 20:04:26 10° NNW 20:07:51 36° N 20:07:51 36° N
CZ-4C R/B 4.4 21:38:46 10° NNW 21:42:04 29° NNW 21:42:04 29° NNW
